Location: Alsip
(41.6689°N, 87.7387°W)
Time: 14:19:36
(UTC+00:00)

ATLAS CENTAUR R/B - Pass Details

Date: 14 July 2020
Orbit: 475 x 672 km, 64.7° (Epoch: 13 July)

Event Time Altitude Azimuth Distance (km) Brightness Sun altitude
Rises 03:00:40 0° 306° (NW) 2,534 6.4 -14.7°
Reaches altitude 10° 03:03:48 10° 276° (W) 1,644 4.4 -15.1°
Maximum altitude 03:05:26 13° 250° (WSW) 1,486 3.8 -15.3°
Drops below altitude 10° 03:07:03 10° 223° (SW) 1,643 3.7 -15.5°
Enters shadow 03:08:23 - 207° (SSW) 1,958 3.9 -15.7°
